This is the latest recevied weather packets stored in our database for station/object KO6LQK. If no packets are shown the sender has not sent any weather packets the latest 10 day(s).
| Time | Temp. | Humidity | Pressure | Rain* | Wind** | Luminosity | Snow |
|---|---|---|---|---|---|---|---|
| 1788461794 | 26.11° C | 25% | 1020.3 hPa | 0 mm | - | 870 W/m² | - |
| 1788461489 | 26.67° C | 25% | 1020.4 hPa | 0 mm | - | 861 W/m² | - |
| 1788461186 | 26.67° C | 26% | 1020.2 hPa | 0 mm | - | 852 W/m² | - |
| 1788460882 | 26.67° C | 25% | 1020.6 hPa | 0 mm | - | 847 W/m² | - |
| 1788460580 | 26.11° C | 26% | 1020.6 hPa | 0 mm | - | 835 W/m² | - |
| 1788460275 | 26.11° C | 25% | 1020.7 hPa | 0 mm | - | 823 W/m² | - |
| 1788459974 | 26.11° C | 25% | 1020.8 hPa | 0 mm | - | 815 W/m² | - |
| 1788459671 | 26.11° C | 25% | 1020.8 hPa | 0 mm | - | 802 W/m² | - |
| 1788459390 | 26.11° C | 25% | 1020.7 hPa | 0 mm | - | 788 W/m² | - |
| 1788459069 | 25.56° C | 24% | 1020.6 hPa | 0 mm | - | 771 W/m² | - |
| 1788458764 | 25° C | 26% | 1020.7 hPa | 0 mm | - | 759 W/m² | - |
| 1788458459 | 25.56° C | 27% | 1020.6 hPa | 0 mm | - | 739 W/m² | - |
| 1788458158 | 25.56° C | 26% | 1020.8 hPa | 0 mm | - | 726 W/m² | - |
| 1788457858 | 25.56° C | 25% | 1020.8 hPa | 0 mm | - | 713 W/m² | - |
| 1788457552 | 25.56° C | 26% | 1020.8 hPa | 0 mm | - | 704 W/m² | - |
| 1788457247 | 25° C | 26% | 1020.7 hPa | 0 mm | - | 689 W/m² | - |
| 1788456942 | 25.56° C | 27% | 1020.7 hPa | 0 mm | - | 678 W/m² | - |
| 1788456639 | 25° C | 28% | 1020.7 hPa | 0 mm | - | 663 W/m² | - |
| 1788456338 | 24.44° C | 28% | 1020.6 hPa | 0 mm | - | 656 W/m² | - |
| 1788456034 | 24.44° C | 29% | 1020.6 hPa | 0 mm | - | 636 W/m² | - |
| 1788455729 | 23.89° C | 29% | 1020.6 hPa | 0 mm | - | 625 W/m² | - |
| 1788455425 | 23.89° C | 29% | 1020.6 hPa | 0 mm | - | 606 W/m² | - |
| 1788455123 | 23.33° C | 30% | 1020.8 hPa | 0 mm | - | 597 W/m² | - |
| 1788454819 | 23.33° C | 30% | 1020.7 hPa | 0 mm | - | 580 W/m² | - |
| 1788454517 | 22.78° C | 31% | 1020.7 hPa | 0 mm | - | 563 W/m² | - |
* Rain latest hour (hover to see other rain measurements)
** Current wind speed in m/s (hover to see current wind gust speed)